Location: Juzet
(42.9779°N, 0.7597°E)
Time: 17:47:17
(UTC+00:00)

Cosmos 2082 Rocket - Pass Details

Date: 14 July 2020
Orbit: 834 x 853 km, 71.0° (Epoch: 12 August)

Event Time Altitude Azimuth Distance (km) Brightness Sun altitude
Exits shadow 02:22:45 29° 198° (SSW) 1,513 3.0 -17.8°
Maximum altitude 02:25:48 83° 113° (ESE) 864 2.2 -17.5°
Drops below altitude 10° 02:31:32 10° 26° (NNE) 2,487 5.9 -16.9°
Sets 02:33:59 0° 26° (NNE) 3,425 7.0 -16.6°
